Cloud_Cover
100 100 100 89 99 55 100 100 100 100 91 27 36 60 18 63 89 12 100 52 20 16 36 21 6 6 0 0 3 5 7 8 2 5 0 0 0 0 0 0 3 0 0
96 100 100 100 100 100 100 100 100 96 98 100 100 99 9 5 1 3 39 100 100 100 67 92 7 35 0 0 0 0 0 19 18 0 24 0 0 0 0 0 0 0 0
100 100 100 100 100 100 97 100 99 100 63 100 97 41 6 27 5 5 4 15 59 20 8 68 100 100 87 22 0 0 16 4 0 1 0 4 0 0 0 2 2 0 0
99 100 100 100 100 100 100 95 100 100 100 62 61 46 5 5 99 6 4 94 98 84 16 13 96 100 100 100 59 1 0 1 0 0 0 0 0 5 0 0 1 0 2
52 79 64 92 95 100 100 87 50 38 5 74 37 28 2 2 1 58 12 0 58 61 67 42 54 53 100 100 100 100 14 4 5 1 0 0 0 0 0 0 0 1 5
0 0 0 0 0 25 100 100 96 8 6 2 60 58 8 4 3 0 5 3 0 0 1 17 19 3 4 100 100 100 100 5 6 5 75 5 1 0 0 0 0 0 0
5 3 0 0 0 0 0 0 7 53 17 6 24 16 0 0 0 0 0 0 0 0 1 0 0 0 0 49 100 100 100 100 100 100 100 97 13 24 0 0 41 20 100
0 0 0 0 0 0 0 0 0 13 25 28 14 16 28 4 2 0 2 9 0 0 0 2 0 0 0 1 30 98 100 100 100 100 100 100 100 77 32 15 99 100 100
0 0 0 1 9 5 0 6 0 5 6 9 54 11 29 0 2 11 13 21 0 0 0 0 0 0 0 4 39 27 100 100 100 93 100 100 100 100 100 100 100 100 100
0 6 0 0 0 52 12 55 31 96 100 100 83 78 90 1 11 0 12 6 0 0 0 0 0 0 0 4 8 66 100 100 100 100 100 100 100 100 97 88 100 88 100
4 7 42 7 4 7 64 88 66 100 100 100 100 100 99 99 89 49 3 28 15 0 0 0 0 0 0 0 35 65 100 87 100 100 100 100 100 100 99 100 100 100 100
0 0 20 0 1 45 78 100 99 100 100 100 100 100 100 100 100 100 98 62 13 24 0 0 0 0 0 87 75 36 100 100 100 100 100 100 100 100 59 93 100 100 100
0 2 0 4 5 22 97 68 100 100 100 100 100 100 100 100 100 100 100 26 16 39 27 0 0 0 100 76 95 43 79 100 100 100 100 100 100 100 100 82 100 91 59
2 3 3 0 5 5 19 100 100 100 100 100 100 100 100 100 100 100 100 63 23 0 2 6 0 1 0 11 63 97 100 100 98 100 99 100 71 97 100 100 100 100 95
54 44 5 28 80 64 6 21 83 100 100 100 100 100 100 100 100 100 100 96 64 81 100 100 100 100 100 91 100 100 100 98 100 93 92 100 100 100 99 100 100 100 100
100 76 5 24 94 77 9 5 50 86 100 100 100 100 100 100 100 100 100 100 96 90 100 100 100 100 100 100 100 100 100 100 100 100 100 100 100 100 99 92 98 100 100
14 98 12 99 100 100 100 100 100 100 100 100 100 100 100 100 100 100 100 100 100 96 100 100 100 100 100 100 100 100 100 100 100 100 100 100 100 99 38 86 74 90 100
17 97 100 100 100 100 100 100 100 100 100 100 100 100 100 100 100 100 100 100 100 100 100 100 100 100 100 100 100 100 100 100 100 100 100 100 100 100 94 95 98 99 100
80 100 100 100 100 100 100 100 100 100 100 100 100 100 100 100 100 100 100 100 100 100 100 100 100 100 100 100 100 100 100 100 100 100 100 100 100 100 100 89 72 98 100
92 100 100 100 100 100 100 100 100 100 100 100 100 100 100 100 100 100 100 100 100 100 100 100 100 100 100 100 100 100 100 100 100 100 100 100 100 100 95 86 97 64 59
100 100 100 100 100 100 100 100 100 100 100 100 100 100 100 100 100 100 100 100 100 100 100 100 100 100 100 100 100 100 100 100 100 100 100 100 100 100 100 100 100 100 100
100 100 100 100 100 100 100 100 100 100 100 100 100 100 100 100 100 100 100 100 100 100 100 100 100 100 100 100 100 100 100 100 100 100 100 100 100 100 100 100 100 100 100
96 100 100 100 100 100 100 100 100 100 100 100 100 100 100 100 100 100 100 100 100 100 100 100 100 100 100 100 100 100 100 100 100 100 100 100 100 100 100 100 100 100 100
98 100 100 100 100 98 98 46 100 100 100 100 100 100 100 100 100 100 100 100 100 100 100 100 100 100 100 100 100 100 100 100 100 100 100 100 100 100 100 100 100 77 63
96 100 100 100 100 100 68 100 78 94 100 100 100 100 100 100 100 100 100 100 100 100 100 100 100 100 100 100 100 100 100 100 100 100 100 100 100 100 100 100 99 98 97
5 28 29 18 67 30 50 7 18 26 5 55 100 100 100 100 100 100 100 100 100 100 100 100 100 100 100 100 100 100 100 100 100 100 100 98 87 100 92 93 100 65 61